Clinton, OK

6:47 AM CST on December 04, 2016 (GMT -0600)
Clinton Municipal

Weather History for KCLK - October, 2013

Change the Weather History Date:

Wednesday, October 9, 2013

  Actual Average (KCSM) Record (KCSM)
Temperature  
Mean Temperature 66 °F -  
Max Temperature 80 °F 73 °F 88 °F (2014)
Min Temperature 51 °F 51 °F 24 °F (2000)
Growing Degree Days 16 (Base 50)    
Moisture  
Dew Point 43 °F    
Average Humidity 48    
Maximum Humidity 82    
Minimum Humidity 23    
Precipitation  
Precipitation 0.00 in - - ()
Sea Level Pressure  
Sea Level Pressure 29.98 in    
Wind  
Wind Speed 13 mph (SSE)    
Max Wind Speed 21 mph    
Max Gust Speed 29 mph    
Visibility 10 miles    
Events      
Averages and records for this station are not official NWS values.
T = Trace of Precipitation, MM = Missing Value Source: NWS Daily Summary

Daily Weather History Graph

Daily Weather History Graph

Search for Another Location

Airport or City:

Trip Planner

Search our weather history database for the weather conditions in past years. The results will help you decide how hot, cold, wet, or windy it might be!

Date:

Astronomy

Oct. 09, 2013 Rise Set
Actual Time 7:37 AM CDT 7:07 PM CDT
Civil Twilight 7:11 AM CDT 7:33 PM CDT
Nautical Twilight 6:42 AM CDT 8:02 PM CDT
Astronomical Twilight 6:12 AM CDT 8:32 PM CDT
Moon 12:26 PM CDT (10/9) 10:52 PM CDT (10/9)
Length of Visible Light 12h 21m
Length of Day
11h 30m
Waxing Crescent, 25% of the Moon is Illuminated
Oct 9
Waxing Crescent
Oct 11
First Quarter
Oct 18
Full
Oct 26
Last Quarter
Nov 3
New

Hourly Weather History & Observations

Time (CDT) Temp. Dew Point Humidity Pressure Visibility Wind Dir Wind Speed Gust Speed Precip Events Conditions
12:15 AM 60.8 °F 39.2 °F 45% 29.97 in 10.0 mi SSE 12.7 mph - N/A   Scattered Clouds
12:35 AM 60.8 °F 39.2 °F 45% 29.98 in 10.0 mi SSE 11.5 mph - N/A   Scattered Clouds
12:55 AM 59.0 °F 39.2 °F 48% 29.98 in 10.0 mi SSE 11.5 mph 17.3 mph N/A   Clear
1:15 AM 59.0 °F 41.0 °F 51% 29.98 in 10.0 mi SSE 11.5 mph - N/A   Scattered Clouds
1:35 AM 59.0 °F 41.0 °F 51% 29.97 in 10.0 mi SSE 11.5 mph - N/A   Scattered Clouds
1:55 AM 57.2 °F 41.0 °F 55% 29.97 in 10.0 mi SSE 11.5 mph - N/A   Scattered Clouds
2:15 AM 57.2 °F 41.0 °F 55% 29.97 in 10.0 mi SSE 10.4 mph - N/A   Scattered Clouds
2:35 AM 55.4 °F 41.0 °F 58% 29.98 in 10.0 mi SSE 11.5 mph - N/A   Scattered Clouds
2:55 AM 55.4 °F 42.8 °F 63% 29.98 in 10.0 mi SSE 12.7 mph - N/A   Scattered Clouds
3:15 AM 55.4 °F 42.8 °F 63% 29.98 in 10.0 mi SSE 12.7 mph - N/A   Scattered Clouds
3:35 AM 55.4 °F 42.8 °F 63% 29.97 in 10.0 mi SSE 12.7 mph - N/A   Mostly Cloudy
3:55 AM 55.4 °F 42.8 °F 63% 29.97 in 10.0 mi SSE 11.5 mph - N/A   Mostly Cloudy
4:15 AM 55.4 °F 42.8 °F 63% 29.97 in 10.0 mi SE 9.2 mph - N/A   Mostly Cloudy
4:35 AM 53.6 °F 44.6 °F 72% 29.97 in 10.0 mi SE 10.4 mph - N/A   Mostly Cloudy
4:55 AM 53.6 °F 44.6 °F 72% 29.97 in 10.0 mi SE 9.2 mph - N/A   Mostly Cloudy
5:15 AM 53.6 °F 44.6 °F 72% 29.97 in 10.0 mi SE 11.5 mph - N/A   Mostly Cloudy
5:35 AM 53.6 °F 44.6 °F 72% 29.97 in 10.0 mi SSE 9.2 mph - N/A   Scattered Clouds
5:55 AM 53.6 °F 44.6 °F 72% 29.97 in 10.0 mi SSE 10.4 mph - N/A   Scattered Clouds
6:15 AM 53.6 °F 44.6 °F 72% 29.98 in 10.0 mi SSE 11.5 mph - N/A   Mostly Cloudy
6:35 AM 53.6 °F 44.6 °F 72% 29.99 in 10.0 mi SSE 10.4 mph - N/A   Mostly Cloudy
6:55 AM 51.8 °F 44.6 °F 76% 29.99 in 10.0 mi SSE 10.4 mph - N/A   Mostly Cloudy
7:15 AM 51.8 °F 46.4 °F 82% 29.99 in 10.0 mi SE 10.4 mph - N/A   Scattered Clouds
7:35 AM 51.8 °F 46.4 °F 82% 29.99 in 10.0 mi SSE 10.4 mph - N/A   Mostly Cloudy
7:55 AM 51.8 °F 46.4 °F 82% 29.99 in 10.0 mi SSE 10.4 mph - N/A   Scattered Clouds
8:15 AM 51.8 °F 46.4 °F 82% 30.00 in 10.0 mi SSE 11.5 mph - N/A   Clear
8:35 AM 51.8 °F 46.4 °F 82% 30.00 in 10.0 mi SSE 10.4 mph - N/A   Clear
8:55 AM 53.6 °F 46.4 °F 77% 30.01 in 10.0 mi SSE 11.5 mph - N/A   Clear
9:15 AM 55.4 °F 46.4 °F 72% 30.02 in 10.0 mi SSE 12.7 mph - N/A   Clear
9:35 AM 57.2 °F 46.4 °F 67% 30.02 in 10.0 mi SSE 12.7 mph - N/A   Clear
9:55 AM 59.0 °F 46.4 °F 63% 30.03 in 10.0 mi South 15.0 mph 19.6 mph N/A   Clear
10:15 AM 60.8 °F 46.4 °F 59% 30.03 in 10.0 mi SSE 15.0 mph - N/A   Clear
10:35 AM 62.6 °F 46.4 °F 55% 30.03 in 10.0 mi South 16.1 mph - N/A   Clear
10:55 AM 66.2 °F 44.6 °F 46% 30.03 in 10.0 mi South 17.3 mph - N/A   Clear
11:15 AM 68.0 °F 44.6 °F 43% 30.03 in 10.0 mi South 15.0 mph 21.9 mph N/A   Clear
11:35 AM 69.8 °F 44.6 °F 40% 30.03 in 10.0 mi South 12.7 mph - N/A   Clear
11:55 AM 69.8 °F 44.6 °F 40% 30.03 in 10.0 mi South 17.3 mph - N/A   Clear
12:15 PM 71.6 °F 42.8 °F 35% 30.02 in 10.0 mi South 15.0 mph 19.6 mph N/A   Clear
12:35 PM 73.4 °F 42.8 °F 33% 30.02 in 10.0 mi South 15.0 mph 23.0 mph N/A   Clear
12:55 PM 73.4 °F 42.8 °F 33% 30.02 in 10.0 mi South 16.1 mph 25.3 mph N/A   Clear
1:15 PM 77.0 °F 42.8 °F 29% 30.01 in 10.0 mi SSW 18.4 mph 24.2 mph N/A   Clear
1:35 PM 77.0 °F 41.0 °F 28% 30.00 in 10.0 mi South 16.1 mph 24.2 mph N/A   Clear
1:55 PM 77.0 °F 41.0 °F 28% 29.99 in 10.0 mi South 19.6 mph 24.2 mph N/A   Clear
2:15 PM 77.0 °F 41.0 °F 28% 29.98 in 10.0 mi SSW 18.4 mph 27.6 mph N/A   Clear
2:35 PM 78.8 °F 41.0 °F 26% 29.97 in 10.0 mi South 19.6 mph 28.8 mph N/A   Clear
2:55 PM 78.8 °F 41.0 °F 26% 29.96 in 10.0 mi SSW 15.0 mph 20.7 mph N/A   Clear
3:15 PM 78.8 °F 39.2 °F 24% 29.96 in 10.0 mi South 20.7 mph 27.6 mph N/A   Clear
3:35 PM 80.6 °F 39.2 °F 23% 29.96 in 10.0 mi South 19.6 mph 27.6 mph N/A   Clear
4:15 PM 78.8 °F 39.2 °F 24% 29.96 in 10.0 mi South 19.6 mph 27.6 mph N/A   Clear
4:35 PM 78.8 °F 37.4 °F 23% 29.96 in 10.0 mi South 17.3 mph - N/A   Clear
4:55 PM 78.8 °F 39.2 °F 24% 29.95 in 10.0 mi SSE 19.6 mph 25.3 mph N/A   Clear
5:15 PM 78.8 °F 39.2 °F 24% 29.94 in 10.0 mi South 18.4 mph 26.5 mph N/A   Clear
5:35 PM 78.8 °F 39.2 °F 24% 29.94 in 10.0 mi South 19.6 mph 25.3 mph N/A   Clear
5:55 PM 78.8 °F 41.0 °F 26% 29.94 in 10.0 mi SSE 17.3 mph 24.2 mph N/A   Clear
6:15 PM 78.8 °F 37.4 °F 23% 29.94 in 10.0 mi South 18.4 mph - N/A   Clear
6:35 PM 77.0 °F 39.2 °F 26% 29.93 in 10.0 mi SSE 16.1 mph 20.7 mph N/A   Clear
7:15 PM 73.4 °F 39.2 °F 29% 29.94 in 10.0 mi SSE 11.5 mph - N/A   Clear
7:35 PM 71.6 °F 41.0 °F 33% 29.94 in 10.0 mi SSE 8.1 mph - N/A   Clear
7:55 PM 69.8 °F 41.0 °F 35% 29.95 in 10.0 mi SSE 8.1 mph - N/A   Clear
8:15 PM 68.0 °F 42.8 °F 40% 29.95 in 10.0 mi SE 6.9 mph - N/A   Clear
8:35 PM 68.0 °F 42.8 °F 40% 29.96 in 10.0 mi SSE 8.1 mph - N/A   Clear
8:55 PM 68.0 °F 42.8 °F 40% 29.96 in 10.0 mi SSE 10.4 mph - N/A   Clear
9:15 PM 68.0 °F 42.8 °F 40% 29.97 in 10.0 mi SSE 13.8 mph - N/A   Clear
9:35 PM 68.0 °F 42.8 °F 40% 29.97 in 10.0 mi SE 11.5 mph - N/A   Clear
9:55 PM 68.0 °F 42.8 °F 40% 29.98 in 10.0 mi SSE 16.1 mph 20.7 mph N/A   Clear
10:15 PM 68.0 °F 42.8 °F 40% 29.98 in 10.0 mi SE 16.1 mph - N/A   Scattered Clouds
10:35 PM 68.0 °F 44.6 °F 43% 29.99 in 10.0 mi SSE 18.4 mph - N/A   Scattered Clouds
10:55 PM 66.2 °F 44.6 °F 46% 30.00 in 10.0 mi SSE 15.0 mph 20.7 mph N/A   Scattered Clouds
11:15 PM 64.4 °F 44.6 °F 49% 30.00 in 10.0 mi SSE 16.1 mph 21.9 mph N/A   Scattered Clouds
11:35 PM 64.4 °F 44.6 °F 49% 30.00 in 10.0 mi SE 13.8 mph - N/A   Scattered Clouds